User: anonymous   Login
Location: Young's Pond
(41.2695°N, 72.7766°W)
Time: 05:18:34
(UTC-04:00)
Language:

Spot 4 - Orbit

View from above orbital plane
View from above orbital plane
View from above satellite
View from above satellite

Ground track
Ground track

The orbit data is extracted from the following two-line orbital elements,

1 25260U 98017A   16211.53832323  .00000087  00000-0  31907-4 0  9999
2 25260  98.3782 288.5669 0012904 179.8537 180.2666 14.53420157954980
Epoch (UTC): 29 July 2016 12:55:11
Eccentricity: 0.0012904
inclination: 98.3782°
perigee height: 705 km
apogee height: 723 km
right ascension of ascending node: 288.5669°
argument of perigee: 179.8537°
revolutions per day: 14.53420157
mean anomaly at epoch: 180.2666°
orbit number at epoch: 95498

The dashed part of the orbit path shows where the satellite is in the earth's shadow,  

DLR